Regional Weather Roundup
Issued by NWS State College, PA

Home | Current Version | Previous Version | Text Only | Print | Product List | Glossary On
Versions: 1 2 3 4 5 6 7 8 9 10 11 12 13 14 15 16 17 18 19 20 21 22 23 24 25 26 27 28 29 30 31 32 33 34 35 36 37 38 39 40 41 42 43 44 45 46 47 48 49 50
000
ASUS41 KCTP 012310
RWRCTP

REGIONAL WEATHER ROUNDUP
NATIONAL WEATHER SERVICE STATE COLLEGE PA
700 PM EDT WED APR 01 2015

Note: "fair" indicates few or no clouds below 12,000 feet with no
significant weather and/or obstructions to visibility.

* = STATION THAT DOES NOT REPORT PRECIPITATION /E.G. RAIN...SNOW...ETC/
    THUNDER OR FOG.

PAZ002>004-007>009-013>016-020>023-029>032-020000-
WESTERN PENNSYLVANIA

CITY           SKY/WX    TMP DP  RH WIND       PRES   REMARKS
ERIE           CLEAR     45  30  55 N5        30.11F
MEADVILLE      CLEAR     51  31  46 SW6       30.10S
FRANKLIN*      CLEAR     50  30  46 W3        30.13S
NEW CASTLE     FAIR      55  31  40 CALM      30.12S
BEAVER COUNTY  CLEAR     55  28  35 NW3       30.11S
BUTLER*        CLEAR     54  28  37 CALM      30.14S
PITTSBURGH INT CLEAR     57  25  29 CALM      30.11S
PITTSBURGH     CLEAR     56  20  24 W6        30.11S
INDIANA*       CLEAR     54  27  35 W5        30.16S
LATROBE        CLEAR     55  25  30 W14       30.14S
WASHINGTON CO* CLEAR     57  25  28 W3        30.14S
$$

PAZ004>006-010>012-017>019-024>028-033>037-041-042-045-046-049>053-020000-
CENTRAL PENNSYLVANIA

CITY           SKY/WX    TMP DP  RH WIND       PRES   REMARKS
BRADFORD       CLEAR     41  28  60 CALM      30.11F
DUBOIS         PTCLDY    49  29  46 CALM      30.11S
CLEARFIELD     PTCLDY    47  29  49 CALM      30.14S
JOHNSTOWN      CLEAR     48  23  37 W7        30.11S
ALTOONA        CLEAR     50  25  37 NW6       30.14R
STATE COLLEGE  CLEAR     46  30  53 NW5       30.15S
WILLIAMSPORT   CLEAR     48  28  46 W14       30.14R
SELINSGROVE    CLEAR     48  30  49 W9        30.16R
FT INDIANTOWN  PTCLDY    50  27  40 NW10      30.16R
CAPITAL CITY   PTCLDY    52  27  38 N6        30.17R
HARRISBURG     PTCLDY    52  27  38 N10       30.16R
YORK           CLEAR     52  27  38 NW9       30.16R
$$

PAZ038>040-043-044-047-048-054-055-060>062-067>071-020000-
EASTERN PENNSYLVANIA

CITY           SKY/WX    TMP DP  RH WIND       PRES   REMARKS
SCRANTON       CLEAR     47  21  35 VRB6      30.13R
MOUNT POCONO   CLEAR     40  18  41 NW6       30.10R
ALLENTOWN      CLEAR     48  25  40 NW10      30.15R
QUAKERTOWN*    CLEAR     48  25  40 NW9       30.15S
READING        CLEAR     50  21  32 N8        30.16R
LANCASTER      PTCLDY    50  28  42 NW8       30.15R
COATESVILLE    CLEAR     50  25  37 N9        30.16R
POTTSTOWN      CLEAR     49  20  31 NW12      30.17R
BLUE BELL      CLEAR     52  27  37 NW5       30.15R
DOYLESTOWN     CLEAR     48  24  39 NW12      30.14R
WILLOW GROVE   NOT AVBL
NORTH PHILA    CLEAR     52  21  29 NW12      30.17R
PHILADELPHIA   CLEAR     55  16  21 NW12      30.16R
$$



USA.gov is the U.S. government's official web portal to all federal, state and local government web resources and services.